Location: 761 Underwood Rd, Vestal, NY 13850, USA
(42.0046°N, 76.0259°W)
Time: 08:15:58
(UTC-04:00)

ISS - Pass Details

Date: 21 March 2019
Orbit: 408 x 410 km, 51.6° (Epoch: 18 April)

Event Time Altitude Azimuth Distance (km) Brightness Sun altitude
Rises 21:32:02 0° 248° (WSW) 2,327 0.6 -25.0°
Reaches altitude 10° 21:34:10 10° 254° (WSW) 1,468 -0.4 -25.4°
Enters shadow 21:35:47 25° 268° (W) 863 -1.6 -25.7°
